GW0980 Weather Reports


Display with metric or nautical units.
time (UTC)temp
F
wind
direction
speed
MPH
gust
MPH
rain 1hr
in
rain 24hr
in
rain mn
in
humidity
%
barometer
mb
20260503050144 61 302 0.0 3.0 0.00 0.00 0.00 78 1013.2
20260503050044 61 302 0.0 3.0 0.00 0.00 0.00 78 1013.2
20260503044541 62 0 0.0 0.0 0.00 0.00 0.00 77 1013.1
20260503043041 62 0 0.0 4.0 0.00 0.00 0.00 76 1013.0
20260503041541 63 292 1.0 4.0 0.00 0.00 0.00 75 1012.8
20260503040044 63 0 0.0 2.0 0.00 0.00 0.00 76 1012.6
20260503034540 63 310 0.0 4.0 0.00 0.00 0.00 76 1012.4
20260503033207 63 278 0.0 3.0 0.00 0.00 0.00 75 1012.3
20260503033046 63 278 0.0 3.0 0.00 0.00 0.00 75 1012.3
20260503031538 64 282 2.0 3.0 0.00 0.00 0.00 73 1012.1
20260503030156 65 0 0.0 1.0 0.00 0.00 0.00 71 1012.5
20260503030042 65 0 0.0 1.0 0.00 0.00 0.00 71 1012.5
20260503024546 65 0 0.0 1.0 0.00 0.00 0.00 70 1012.7
20260503023037 66 0 0.0 3.0 0.00 0.00 0.00 69 1012.8
20260503021633 67 80 0.0 4.0 0.00 0.00 0.00 68 1012.9
20260503021548 67 80 0.0 4.0 0.00 0.00 0.00 68 1012.9
20260503020050 68 58 0.0 3.0 0.00 0.00 0.00 67 1012.7
20260503014607 68 120 1.0 4.0 0.00 0.00 0.00 66 1012.3
20260503013040 70 0 0.0 3.0 0.00 0.00 0.00 64 1012.1
20260503011546 71 0 0.0 2.0 0.00 0.00 0.00 61 1012.2
20260503010050 71 0 0.0 1.0 0.00 0.00 0.00 59 1012.1
20260503004609 71 0 0.0 2.0 0.00 0.00 0.00 58 1012.1
20260503003038 70 0 0.0 2.0 0.00 0.00 0.00 59 1012.0
20260503001539 70 106 0.0 3.0 0.00 0.00 0.00 59 1011.8
20260503000136 70 146 1.0 3.0 0.00 0.00 0.00 58 1011.9
20260503000043 70 146 1.0 3.0 0.00 0.00 0.00 58 1011.9
20260502234543 70 0 0.0 1.0 0.00 0.00 0.00 58 1012.0
20260502233041 69 0 0.0 2.0 0.00 0.00 0.00 58 1012.4
20260502231542 69 39 0.0 2.0 0.00 0.00 0.00 58 1012.6
20260502230043 69 0 0.0 3.0 0.00 0.00 0.00 59 1012.9
20260502224538 69 146 0.0 4.0 0.00 0.00 0.00 60 1013.0
20260502223041 68 229 0.0 4.0 0.00 0.00 0.00 59 1013.2
20260502221545 68 0 0.0 2.0 0.00 0.00 0.00 59 1013.5
20260502220039 68 0 0.0 2.0 0.00 0.00 0.00 59 1013.7
20260502214544 66 79 0.0 2.0 0.00 0.00 0.00 60 1013.8
20260502213042 64 0 0.0 1.0 0.00 0.00 0.00 65 1013.9
20260502211620 62 0 0.0 1.0 0.00 0.00 0.00 67 1014.2
20260502210042 62 0 0.0 1.0 0.00 0.00 0.00 68 1014.4
20260502204540 61 270 0.0 1.0 0.00 0.00 0.00 67 1014.5
20260502203053 60 0 0.0 3.0 0.00 0.00 0.00 67 1014.7
20260502201543 58 305 2.0 4.0 0.00 0.00 0.00 68 1015.1
20260502200043 57 301 0.0 1.0 0.00 0.00 0.00 74 1015.5
20260502194541 57 0 0.0 2.0 0.00 0.00 0.00 74 1015.7
20260502193042 56 0 0.0 3.0 0.00 0.00 0.00 77 1015.8
20260502191545 55 160 0.0 2.0 0.00 0.00 0.00 76 1015.9
20260502190043 55 0 0.0 2.0 0.00 0.00 0.00 76 1015.9
20260502184552 55 0 0.0 1.0 0.00 0.00 0.00 77 1016.0
20260502183053 55 0 0.0 1.0 0.00 0.00 0.00 76 1016.1
20260502181723 55 0 0.0 3.0 0.00 0.00 0.00 75 1015.9
20260502181543 55 0 0.0 3.0 0.00 0.00 0.00 75 1015.9
20260502163044 52 0 0.0 2.0 0.00 0.00 0.00 81 1016.6
20260502161541 51 288 1.0 3.0 0.00 0.00 0.00 81 1016.7
20260502151553 47 306 0.0 5.0 0.00 0.00 0.00 87 1016.7
20260502123043 47 306 1.0 6.0 0.00 0.00 0.00 86 1016.7
20260502121541 48 300 3.0 7.0 0.00 0.00 0.00 86 1016.5
20260502114544 48 274 3.0 6.0 0.00 0.00 0.00 86 1016.5
20260502113047 47 276 2.0 6.0 0.00 0.00 0.00 86 1016.5
20260502111538 48 280 4.0 9.0 0.00 0.00 0.00 86 1016.3
20260502110149 48 283 6.0 13.0 0.00 0.00 0.00 86 1016.2
20260502110039 48 283 6.0 13.0 0.00 0.00 0.00 86 1016.2
20260502104548 48 303 6.0 13.0 0.00 0.00 0.00 86 1016.2
20260502103039 48 281 5.0 11.0 0.00 0.00 0.00 85 1016.3
20260502101733 48 293 7.0 12.0 0.00 0.00 0.00 85 1016.3
20260502101604 48 293 7.0 12.0 0.00 0.00 0.00 85 1016.3
20260502100153 48 295 5.0 14.0 0.00 0.00 0.00 85 1016.4
20260502090432 49 277 5.0 8.0 0.00 0.00 0.00 86 1017.4
20260502071536 50 324 7.0 12.0 0.00 0.00 0.00 85 1017.5
20260502070056 50 255 6.0 16.0 0.00 0.00 0.00 85 1017.5
20260502064545 50 280 6.0 12.0 0.00 0.00 0.00 85 1017.8
20260502063039 50 266 6.0 12.0 0.00 0.00 0.00 85 1017.7
20260502061540 50 278 6.0 14.0 0.00 0.00 0.00 85 1017.7
20260502060042 50 276 6.0 12.0 0.00 0.00 0.00 85 1017.5
20260502054546 50 263 6.0 14.0 0.00 0.00 0.00 85 1017.5
20260502053044 50 278 7.0 14.0 0.00 0.00 0.00 85 1017.4
20260502051601 50 279 8.0 15.0 0.00 0.00 0.00 85 1017.4